FW6176 Weather Reports


Display with metric or nautical units.
time (UTC)temp
F
wind
direction
speed
MPH
gust
MPH
rain 1hr
in
rain 24hr
in
rain mn
in
humidity
%
barometer
mb
20260506041527 47 305 0.0 0.0 0.01 0.44 0.44 88 1012.4
20260506040126 47 319 0.0 1.0 0.00 0.43 0.43 88 1012.7
20260506034525 47 312 0.0 2.0 0.00 0.43 0.43 88 1012.8
20260506033021 47 295 0.0 1.0 0.00 0.43 0.43 88 1012.5
20260506031537 47 314 0.0 4.0 0.00 0.43 0.43 88 1012.0
20260506030020 47 315 0.0 1.0 0.01 0.43 0.43 88 1011.5
20260506024521 46 324 0.0 1.0 0.03 0.43 0.43 88 1011.7
20260506023019 46 319 0.0 0.0 0.05 0.43 0.43 88 1011.7
20260506021519 46 321 0.0 1.0 0.06 0.43 0.43 87 1011.9
20260506020018 46 301 0.0 2.0 0.07 0.42 0.42 87 1011.5
20260506014517 46 269 0.0 3.0 0.09 0.40 0.40 87 1012.2
20260506013014 47 304 0.0 2.0 0.07 0.38 0.38 87 1011.5
20260506011512 46 309 0.0 1.0 0.07 0.37 0.37 86 1011.1
20260506010013 46 340 0.0 3.0 0.07 0.35 0.35 85 1010.9
20260506004521 47 313 0.0 3.0 0.04 0.31 0.31 85 1011.3
20260506003009 47 301 1.0 4.0 0.09 0.31 0.31 85 1010.5
20260506001505 47 307 0.0 4.0 0.10 0.30 0.30 85 1010.6
20260506000004 47 331 1.0 7.0 0.08 0.28 0.28 85 1010.4
20260505234503 48 297 4.0 7.0 0.06 0.26 0.26 83 1010.1
20260505233111 48 307 2.0 8.0 0.02 0.22 0.22 82 1010.4
20260505231606 49 41 3.0 8.0 0.00 0.20 0.20 81 1009.8
20260505230057 49 296 3.0 7.0 0.00 0.20 0.20 81 1009.9
20260505224557 49 304 2.0 7.0 0.00 0.20 0.20 82 1009.6
20260505223056 49 32 2.0 8.0 0.00 0.20 0.20 83 1009.2
20260505221553 49 316 2.0 5.0 0.01 0.20 0.20 84 1009.4
20260505220052 49 336 0.0 5.0 0.02 0.20 0.20 85 1009.3
20260505214555 48 307 1.0 4.0 0.02 0.20 0.20 84 1009.8
20260505213050 49 331 0.0 3.0 0.02 0.20 0.20 85 1009.4
20260505211600 49 294 1.0 5.0 0.03 0.19 0.19 84 1009.7
20260505210049 49 307 0.0 7.0 0.03 0.18 0.18 83 1010.2
20260505204548 49 333 1.0 4.0 0.03 0.18 0.18 84 1009.9
20260505203049 49 301 0.0 6.0 0.03 0.18 0.18 83 1010.0
20260505201546 49 294 0.0 6.0 0.01 0.16 0.16 82 1009.9
20260505200048 49 314 1.0 7.0 0.00 0.15 0.15 81 1010.0
20260505194551 50 25 2.0 7.0 0.00 0.15 0.15 80 1010.3
20260505193042 50 314 4.0 11.0 0.01 0.15 0.15 78 1010.5
20260505191541 50 310 4.0 10.0 0.01 0.15 0.15 79 1010.3
20260505190041 51 296 4.0 10.0 0.01 0.15 0.15 78 1010.4
20260505184538 52 314 2.0 9.0 0.01 0.16 0.15 77 1009.9
20260505183040 53 302 3.0 10.0 0.00 0.15 0.14 73 1010.4
20260505181540 54 292 4.0 7.0 0.00 0.15 0.14 69 1010.2
20260505180039 54 292 2.0 5.0 0.00 0.15 0.14 71 1010.7
20260505174540 54 340 2.0 8.0 0.00 0.55 0.14 70 1010.8
20260505173035 54 316 3.0 8.0 0.00 0.55 0.14 71 1010.5
20260505171535 55 352 2.0 6.0 0.00 0.55 0.14 69 1010.5
20260505170030 56 310 0.0 3.0 0.00 0.55 0.14 67 1009.9
20260505164528 57 49 0.0 3.0 0.00 0.57 0.14 64 1009.9
20260505163027 57 84 0.0 3.0 0.00 0.57 0.14 64 1009.5
20260505161529 57 18 0.0 3.0 0.00 0.57 0.14 62 1009.6
20260505153026 56 30 2.0 7.0 0.00 0.57 0.14 66 1009.2
20260505151525 56 41 1.0 6.0 0.00 0.57 0.14 70 1009.4
20260505124515 49 307 2.0 7.0 0.10 0.55 0.11 86 1009.6
20260505123013 50 311 2.0 11.0 0.10 0.55 0.11 84 1009.4
20260505121609 51 302 2.0 9.0 0.09 0.54 0.10 82 1008.9
20260505120004 53 292 3.0 9.0 0.04 0.48 0.04 77 1009.8
20260505114602 54 291 4.0 11.0 0.01 0.45 0.01 75 1008.6
20260505113105 55 292 3.0 8.0 0.01 0.45 0.01 73 1007.8
20260505111552 56 308 3.0 7.0 0.01 0.45 0.01 73 1007.5
20260505101540 59 307 5.0 9.0 0.00 0.44 0.00 78 1007.0
20260505100035 60 350 2.0 8.0 0.00 0.44 0.00 79 1006.7
20260505094535 62 300 3.0 9.0 0.00 0.44 0.00 78 1006.7
20260505093027 64 302 1.0 5.0 0.00 0.44 0.00 72 1006.4
20260505091524 64 291 1.0 4.0 0.00 0.44 0.00 69 1006.1
20260505090023 64 119 0.0 0.0 0.00 0.44 0.00 67 1005.2
20260505084526 64 114 0.0 1.0 0.00 0.44 0.00 67 1005.1
20260505083021 64 116 0.0 1.0 0.00 0.44 0.00 68 1004.9
20260505081529 65 117 0.0 2.0 0.00 0.44 0.00 66 1005.0
20260505080016 66 302 0.0 2.0 0.00 0.44 0.00 63 1005.4
20260505074514 66 85 0.0 1.0 0.00 0.44 0.00 62 1005.4
20260505073014 66 310 0.0 3.0 0.00 0.44 0.00 61 1005.6
20260505071524 67 40 0.0 3.0 0.00 0.44 0.00 60 1005.8
20260505070010 68 302 1.0 8.0 0.00 0.44 0.00 58 1006.3
20260505064507 70 300 7.0 14.0 0.00 0.44 0.00 55 1006.0
20260505063100 72 306 4.0 7.0 0.00 0.44 0.00 56 1005.0
20260505061601 72 6 0.0 4.0 0.00 0.44 0.00 56 1004.1
20260505060056 72 77 1.0 5.0 0.00 0.44 0.00 56 1004.0
20260505054557 72 207 0.0 3.0 0.00 0.44 0.00 56 1004.0
20260505053102 72 268 0.0 7.0 0.00 0.44 0.00 55 1003.8
20260505051549 72 226 0.0 5.0 0.00 0.44 0.00 55 1003.5